Location: Newark
(41.9000°N, 12.4833°E)
Time: 11:07:56
(UTC+00:00)

NOAA 18 - Visible Passes

Search period start: 19 May 2019 00:00
Search period end: 29 May 2019 00:00
Orbit: 841 x 860 km, 99.1° (Epoch: 18 May)

Date Brightness Start Highest point End Pass type
(mag) Time Alt. Az. Time Alt. Az. Time Alt. Az.
19 May 6.0 19:36:45 10° S 19:42:07 52° W 19:47:33 10° NNW visible
20 May 5.6 19:24:53 10° S 19:30:22 66° WSW 19:35:55 10° NNW visible
21 May 5.4 19:13:06 10° SSE 19:18:39 83° WSW 19:24:14 10° NNW visible
21 May 8.0 20:59:18 10° W 21:00:06 10° W 21:00:53 10° W visible
22 May 5.3 19:01:24 10° SSE 19:06:55 79° ENE 19:12:30 10° NNW visible
22 May 7.7 20:45:27 10° WSW 20:48:12 14° W 20:50:57 10° WNW visible
23 May 7.6 20:32:40 10° SW 20:36:20 18° W 20:40:01 10° NW visible
24 May 7.3 20:20:12 10° SW 20:24:29 23° W 20:28:48 10° NW visible
25 May 6.9 20:07:55 10° SSW 20:12:39 29° W 20:17:26 10° NW visible
26 May 6.6 19:55:47 10° SSW 20:00:50 36° W 20:05:58 10° NNW visible
27 May 6.2 19:43:46 10° S 19:49:04 46° W 19:54:25 10° NNW visible
28 May 5.8 19:31:51 10° S 19:37:18 58° WSW 19:42:49 10° NNW visible
